Location: Acequia del Cap
(41.7000°N, 0.6167°E)
Time: 23:44:32
(UTC+00:00)

IRAS Rocket - Pass Details

Date: 07 August 2020
Orbit: 847 x 878 km, 100.1° (Epoch: 22 September)

Event Time Altitude Azimuth Distance (km) Brightness Sun altitude
Exits shadow 01:56:53 65° 267° (W) 944 4.2 -26.3°
Drops below altitude 10° 02:02:17 10° 339° (NNW) 2,518 7.1 -25.8°
Sets 02:04:42 0° 342° (NNW) 3,464 7.9 -25.6°
